Frankfort, MI

10:45 AM EDT on April 22, 2018 (GMT -0400)
Frankfort

Weather History for KFKS - August, 2013

Change the Weather History Date:

Tuesday, August 27, 2013

  Actual Average (KMBL) Record (KMBL)
Temperature  
Mean Temperature 74 °F -  
Max Temperature 81 °F 77 °F 94 °F (1953)
Min Temperature 67 °F 60 °F 43 °F (1968)
Cooling Degree Days 9    
Growing Degree Days 24 (Base 50)    
Moisture  
Dew Point 69 °F    
Average Humidity 90    
Maximum Humidity 94    
Minimum Humidity 74    
Precipitation  
Precipitation 0.00 in - - ()
Sea Level Pressure  
Sea Level Pressure 29.89 in    
Wind  
Wind Speed 3 mph (East)    
Max Wind Speed 20 mph    
Max Gust Speed 39 mph    
Visibility 9 miles    
Events Rain    
Averages and records for this station are not official NWS values.
T = Trace of Precipitation, MM = Missing Value Source: NWS Daily Summary

Daily Weather History Graph

Daily Weather History Graph

Search for Another Location

Airport or City:

Astronomy

Aug. 27, 2013 Rise Set
Actual Time 7:01 AM EDT 8:29 PM EDT
Civil Twilight 6:31 AM EDT 9:00 PM EDT
Nautical Twilight 5:54 AM EDT 9:36 PM EDT
Astronomical Twilight 5:14 AM EDT 10:16 PM EDT
Moon No Moon Rise 2:17 PM EDT (8/27)
Length of Visible Light 14h 29m
Length of Day
13h 28m
Waning Gibbous, 57% of the Moon is Illuminated
Aug 27
Waning Gibbous
Aug 28
Last Quarter
Sep 5
New
Sep 12
First Quarter
Sep 19
Full

Hourly Weather History & Observations

Time (EDT) Temp. Heat Index Dew Point Humidity Pressure Visibility Wind Dir Wind Speed Gust Speed Precip Events Conditions
12:12 AM 68.0 °F - 64.8 °F 89% 29.95 in 10.0 mi Calm Calm - N/A   Clear
12:32 AM 67.6 °F - 65.3 °F 92% 29.94 in 7.0 mi Calm Calm - N/A   Clear
12:52 AM 67.1 °F - 64.6 °F 92% 29.93 in 7.0 mi Calm Calm - N/A   Clear
1:13 AM 67.6 °F - 64.8 °F 90% 29.93 in 7.0 mi Calm Calm - N/A   Clear
1:33 AM 67.5 °F - 64.9 °F 92% 29.94 in 7.0 mi Calm Calm - N/A   Clear
1:53 AM 67.5 °F - 65.1 °F 92% 29.93 in 7.0 mi Calm Calm - N/A   Scattered Clouds
2:13 AM 67.6 °F - 65.3 °F 92% 29.94 in 7.0 mi Calm Calm - N/A   Mostly Cloudy
2:33 AM 68.9 °F - 66.0 °F 90% 29.93 in 10.0 mi Calm Calm - N/A   Overcast
2:53 AM 68.9 °F - 66.2 °F 91% 29.92 in 7.0 mi Calm Calm - N/A   Overcast
3:13 AM 70.2 °F - 67.6 °F 92% 29.96 in 7.0 mi WNW 15.0 mph - N/A Rain Light Rain
3:33 AM 70.7 °F - 68.2 °F 92% 30.01 in 1.2 mi NW 19.6 mph 39.1 mph N/A Rain Heavy Rain
3:53 AM 70.2 °F - 68.0 °F 93% 30.00 in 3.0 mi North 15.0 mph 26.5 mph N/A Rain Heavy Rain
4:14 AM - - - N/A% 29.98 in 7.0 mi NNE 5.8 mph - N/A Rain Heavy Rain
4:34 AM - - - N/A% 29.95 in 7.0 mi NE 8.1 mph - N/A Rain Rain
4:54 AM - - - N/A% 29.95 in 10.0 mi ENE 6.9 mph - N/A Rain Rain
5:14 AM 70.0 °F - 67.5 °F 92% 29.92 in 10.0 mi South 5.8 mph - N/A Rain Light Rain
5:34 AM 69.8 °F - 67.3 °F 92% 29.91 in 10.0 mi South 3.5 mph - N/A Rain Light Rain
5:54 AM 69.4 °F - 67.3 °F 93% 29.91 in 10.0 mi Calm Calm - N/A Rain Light Rain
6:14 AM 69.3 °F - 67.1 °F 93% 29.90 in 10.0 mi Calm Calm - N/A   Clear
6:34 AM 69.1 °F - 67.1 °F 93% 29.89 in 10.0 mi Calm Calm - N/A Rain Light Rain
6:55 AM 68.9 °F - 67.1 °F 94% 29.89 in 10.0 mi Calm Calm - N/A   Scattered Clouds
7:15 AM 68.9 °F - 67.1 °F 94% 29.89 in 10.0 mi ESE 3.5 mph - N/A   Clear
7:35 AM 69.4 °F - 67.1 °F 92% 29.90 in 10.0 mi Calm Calm - N/A   Clear
7:55 AM 69.8 °F - 67.1 °F 91% 29.91 in 10.0 mi Calm Calm - N/A Rain Light Rain
8:15 AM 70.0 °F - 67.3 °F 91% 29.91 in 10.0 mi Calm Calm - N/A   Clear
8:35 AM 70.3 °F - 67.1 °F 89% 29.90 in 10.0 mi Calm Calm - N/A   Clear
8:55 AM 70.9 °F - 67.5 °F 89% 29.91 in 10.0 mi ESE 3.5 mph - N/A   Clear
9:16 AM 71.1 °F - 67.6 °F 89% 29.91 in 10.0 mi Calm Calm - N/A   Clear
9:36 AM 71.2 °F - 68.0 °F 89% 29.91 in 10.0 mi Calm Calm - N/A Rain Light Rain
9:56 AM 71.6 °F - 68.2 °F 89% 29.91 in 10.0 mi Calm Calm - N/A Rain Light Rain
10:16 AM 71.6 °F - 68.4 °F 89% 29.91 in 10.0 mi Calm Calm - N/A Rain Light Rain
10:36 AM 71.8 °F - 68.9 °F 91% 29.91 in 10.0 mi Calm Calm - N/A Rain Light Rain
10:56 AM 71.6 °F - 68.9 °F 91% 29.93 in 10.0 mi Calm Calm - N/A Rain Light Rain
11:11 AM 71.1 °F - 68.5 °F 92% 29.94 in 10.0 mi NNE 5.8 mph - N/A Rain Rain
11:31 AM 70.9 °F - 68.4 °F 92% 29.92 in 7.0 mi East 5.8 mph - N/A Rain Rain
11:51 AM 71.6 °F - 68.9 °F 91% 29.88 in 10.0 mi ESE 8.1 mph - N/A   Mostly Cloudy
12:12 PM 72.3 °F - 69.3 °F 90% 29.90 in 10.0 mi SSE 3.5 mph - N/A   Overcast
12:32 PM 73.8 °F - 70.3 °F 89% 29.90 in 10.0 mi SE 3.5 mph - N/A   Mostly Cloudy
12:52 PM 75.7 °F - 71.1 °F 85% 29.90 in 10.0 mi SE 4.6 mph - N/A   Scattered Clouds
1:12 PM 77.5 °F - 71.4 °F 81% 29.88 in 10.0 mi SE 6.9 mph - N/A   Scattered Clouds
1:32 PM 78.1 °F - 71.8 °F 81% 29.87 in 10.0 mi South 6.9 mph - N/A   Mostly Cloudy
1:52 PM 80.6 °F 85.0 °F 72.9 °F 77% 29.84 in 10.0 mi SSE 9.2 mph - N/A   Scattered Clouds
2:12 PM 81.7 °F 86.7 °F 72.5 °F 74% 29.83 in 10.0 mi SSE 9.2 mph - N/A   Scattered Clouds
2:32 PM 80.4 °F 84.8 °F 72.9 °F 78% 29.84 in 10.0 mi East 3.5 mph - N/A Rain Light Rain
2:52 PM 77.2 °F - 72.0 °F 84% 29.85 in 10.0 mi NNE 5.8 mph - N/A Rain Light Rain
3:13 PM 73.2 °F - 70.3 °F 91% 29.85 in 4.0 mi NE 8.1 mph 18.4 mph N/A Rain Heavy Rain
3:33 PM 72.5 °F - 69.8 °F 91% 29.84 in 7.0 mi ESE 4.6 mph - N/A Rain Light Rain
3:53 PM 72.5 °F - 69.8 °F 91% 29.84 in 10.0 mi East 3.5 mph - N/A   Overcast
4:13 PM 72.5 °F - 69.1 °F 89% 29.85 in 10.0 mi ESE 5.8 mph - N/A   Overcast
4:33 PM 72.5 °F - 69.3 °F 90% 29.87 in 10.0 mi South 3.5 mph - N/A   Overcast
4:53 PM 72.9 °F - 69.6 °F 90% 29.85 in 10.0 mi East 8.1 mph - N/A   Overcast
5:13 PM 72.7 °F - 69.4 °F 90% 29.85 in 10.0 mi East 4.6 mph - N/A   Overcast
5:33 PM 72.5 °F - 69.4 °F 90% 29.85 in 10.0 mi East 5.8 mph - N/A   Overcast
5:54 PM 72.5 °F - 69.3 °F 90% 29.85 in 10.0 mi ESE 4.6 mph - N/A   Overcast
6:14 PM 72.5 °F - 69.3 °F 90% 29.84 in 10.0 mi ESE 5.8 mph - N/A   Overcast
6:34 PM 72.5 °F - 69.3 °F 90% 29.84 in 10.0 mi Calm Calm - N/A   Overcast
6:54 PM 72.5 °F - 69.3 °F 90% 29.83 in 10.0 mi Calm Calm - N/A   Overcast
7:14 PM 72.7 °F - 69.4 °F 90% 29.82 in 10.0 mi SSE 3.5 mph - N/A   Mostly Cloudy
7:34 PM 73.2 °F - 69.6 °F 88% 29.82 in 10.0 mi Calm Calm - N/A   Mostly Cloudy
7:54 PM 73.4 °F - 69.8 °F 88% 29.83 in 10.0 mi Calm Calm - N/A   Scattered Clouds
8:14 PM 72.5 °F - 69.6 °F 91% 29.83 in 10.0 mi Calm Calm - N/A   Scattered Clouds
8:34 PM 72.1 °F - 69.4 °F 91% 29.83 in 10.0 mi SSE 3.5 mph - N/A   Mostly Cloudy
8:55 PM 72.5 °F - 69.8 °F 91% 29.84 in 10.0 mi Calm Calm - N/A   Overcast
9:15 PM 72.5 °F - 69.8 °F 91% 29.85 in 10.0 mi NE 3.5 mph - N/A   Overcast
9:35 PM 72.1 °F - 69.4 °F 91% 29.84 in 10.0 mi ENE 9.2 mph - N/A   Overcast
9:55 PM 72.1 °F - 69.3 °F 91% 29.85 in 10.0 mi ENE 8.1 mph - N/A   Overcast
10:15 PM 72.5 °F - 69.3 °F 90% 29.85 in 10.0 mi ENE 4.6 mph - N/A   Overcast
10:35 PM 72.7 °F - 69.4 °F 90% 29.85 in 10.0 mi Calm Calm - N/A   Overcast
10:55 PM 72.7 °F - 69.3 °F 89% 29.85 in 10.0 mi NE 3.5 mph - N/A   Overcast
11:15 PM 72.5 °F - 69.3 °F 90% 29.85 in 10.0 mi Calm Calm - N/A   Overcast
11:36 PM 72.1 °F - 69.3 °F 91% 29.85 in 10.0 mi Calm Calm - N/A   Overcast
11:56 PM 72.5 °F - 69.3 °F 90% 29.85 in 10.0 mi NE 3.5 mph - N/A   Overcast